Regional Weather Roundup
Issued by NWS Cleveland, OH

Home | Current Version | Previous Version | Text Only | Print | Product List | Glossary Off
Versions: 1 2 3 4 5 6 7 8 9 10 11 12 13 14 15 16 17 18 19 20 21 22 23 24 25 26 27 28 29 30 31 32 33 34 35 36 37 38 39 40 41 42 43 44 45 46 47 48 49 50

000
ASUS41 KCLE 181102
RWRCLE
OHIO REGIONAL WEATHER ROUNDUP
NATIONAL WEATHER SERVICE CLEVELAND, OH
700 AM EDT WED OCT 18 2017

NOTE: "FAIR" INDICATES FEW OR NO CLOUDS BELOW 12,000 FEET WITH NO
SIGNIFICANT WEATHER AND/OR OBSTRUCTIONS TO VISIBILITY.

OHZ001>008-015>018-024>027-034-035-043-044-181200-
   NORTHWEST OHIO

CITY           SKY/WX    TMP DP  RH WIND       PRES   REMARKS
DEFIANCE       CLEAR     43  37  79 S3        30.27R
FINDLAY        CLEAR     43  37  79 S6        30.27R
TOLEDO EXPRESS CLEAR     41  40  96 CALM      30.27R
TOLEDO EXEC    CLEAR     42  37  82 S6        30.28R
LIMA           CLEAR     45  40  82 S8        30.28R
$$

OHZ009>014-019>023-028>033-038-089-181200-
   NORTHEAST OHIO

CITY           SKY/WX    TMP DP  RH WIND       PRES   REMARKS
CLE-HOPKINS    CLEAR     49  40  71 S6        30.32R
CLE-LAKEFRONT  CLEAR     49  39  68 SE7       30.28R
CUY CO. ARPT   CLEAR     50  39  66 S6        30.30
LORAIN-ELYRIA  CLEAR     42  35  76 S3        30.30R
ASHTABULA      CLEAR     45  40  82 S3        30.31R
AKRON-CANTON   CLEAR     44  37  76 S5        30.31R
WOOSTER        CLEAR     36  34  92 CALM      30.32R
MANSFIELD      CLEAR     44  38  79 S3        30.29S
YOUNGSTOWN     PTCLDY    44  38  79 CALM      30.31R
$$

OHZ042-051>053-060>062-070>072-077>081-181200-
  SOUTHWEST OHIO

CITY           SKY/WX    TMP DP  RH WIND       PRES   REMARKS
CINC-COVINGTON CLEAR     43  41  93 SE3       30.30R
CINC-LUNKEN    FOG       41  41 100 CALM      30.33R VSB 1/4
HAMILTON       CLEAR     35  35 100 CALM      30.32R
DAYTON         CLEAR     44  41  89 S6        30.30R
WRIGHT-PAT AFB CLEAR     39  39  98 CALM      30.30R
DAYTON GENERAL CLEAR     45  39  79 CALM      30.29R
WILMINGTON     CLEAR     40  39  97 CALM      30.31R
$$

OHZ036-037-039>041-045>050-054>059-063>069-073>076-082>088-181200-
  CENTRAL AND SOUTHEAST OHIO

CITY           SKY/WX    TMP DP  RH WIND       PRES   REMARKS
COLUMBUS       CLEAR     44  41  89 CALM      30.31R
OSU AIRPORT    CLEAR     41  41 100 CALM      30.31R
BOLTON FIELD   NOT AVBL
RICKENBACK AFB CLEAR     38  39 100 CALM      30.31S
NEWARK         CLEAR     38  35  89 CALM      30.32R
MARION         CLEAR     41  38  89 S5        30.30R
LANCASTER      CLEAR     36  36 100 CALM      30.32R
ZANESVILLE     CLEAR     39  36  89 CALM      30.33R
NEW PHILLY     NOT AVBL
$$




USA.gov is the U.S. government's official web portal to all federal, state and local government web resources and services.